This is the latest recevied weather packets stored in our database for station/object KD8DLP-13. If no packets are shown the sender has not sent any weather packets the latest 10 day(s).
| Time | Temp. | Humidity | Pressure | Rain* | Wind** | Luminosity | Snow |
|---|---|---|---|---|---|---|---|
| 1778020122 | 11.67° C | 44% | 1009.4 hPa | 0 mm | - | 139 W/m² | - |
| 1778019818 | 11.67° C | 44% | 1009.9 hPa | 0 mm | - | 118 W/m² | - |
| 1778019515 | 11.67° C | 43% | 1009.5 hPa | 0 mm | - | 121 W/m² | - |
| 1778019212 | 11.67° C | 43% | 1009.8 hPa | 0 mm | - | 130 W/m² | - |
| 1778018909 | 11.67° C | 44% | 1009.5 hPa | 0 mm | - | 164 W/m² | - |
| 1778018606 | 11.67° C | 44% | 1009.5 hPa | 0 mm | - | 143 W/m² | - |
| 1778018304 | 12.22° C | 44% | 1009.5 hPa | 0 mm | - | 162 W/m² | - |
| 1778018002 | 12.22° C | 43% | 1009.6 hPa | 0 mm | - | 141 W/m² | - |
| 1778017700 | 12.22° C | 43% | 1009.5 hPa | 0 mm | - | 143 W/m² | - |
| 1778017397 | 12.22° C | 43% | 1009.5 hPa | 0 mm | - | 154 W/m² | - |
| 1778017094 | 12.22° C | 43% | 1009.5 hPa | 0 mm | - | 167 W/m² | - |
| 1778016792 | 12.78° C | 44% | 1009.6 hPa | 0 mm | - | 197 W/m² | - |
| 1778016487 | 12.78° C | 43% | 1009.6 hPa | 0 mm | - | 211 W/m² | - |
| 1778016185 | 12.22° C | 44% | 1009.8 hPa | 0 mm | - | 240 W/m² | - |
| 1778015881 | 12.22° C | 46% | 1009.4 hPa | 0 mm | - | 261 W/m² | - |
| 1778015579 | 12.78° C | 44% | 1009.4 hPa | 0 mm | - | 195 W/m² | - |
| 1778015275 | 13.33° C | 42% | 1009.5 hPa | 0 mm | - | 219 W/m² | - |
| 1778014972 | 13.33° C | 43% | 1009.8 hPa | 0 mm | - | 326 W/m² | - |
| 1778014669 | 12.78° C | 43% | 1009.8 hPa | 0 mm | - | 323 W/m² | - |
| 1778014367 | 12.78° C | 42% | 1009.9 hPa | 0 mm | - | 286 W/m² | - |
| 1778014063 | 12.78° C | 43% | 1009.8 hPa | 0 mm | - | 308 W/m² | - |
| 1778013762 | 12.78° C | 42% | 1009.8 hPa | 0 mm | - | 326 W/m² | - |
| 1778013459 | 12.78° C | 43% | 1009.6 hPa | 0 mm | - | 343 W/m² | - |
| 1778013156 | 13.33° C | 42% | 1009.9 hPa | 0 mm | - | 326 W/m² | - |
| 1778012851 | 12.78° C | 43% | 1009.6 hPa | 0 mm | - | 315 W/m² | - |
* Rain latest hour (hover to see other rain measurements)
** Current wind speed in m/s (hover to see current wind gust speed)